[[{"header":{"parameterUnit":"m.s-1","parameterCategory":2,"la1":30.2991,"la2":30.254,"lo1":-89.0895,"lo2":-89.0444,"dy":0.0017,"dx":0.0017,"nx":28,"ny":28,"refTime":"2024-11-28T03:00:00:Z","depth":"0","parameterNumber":2,"parameterNumberName":"U-component_of_CURRENTS"},"data":[0,0,0,0,0,0,0,0,0,0,0,0,0,0,0,0,0,0,0,0,0,0,0,0,0,0,0,0,0,0,0,0,0,0,0,0,0,0,0,0,0,0,0,0,0,0,0,0,0,0,0,0,0,0,0,0,0,0,0.1173,0.1173,0,0.1242,0.1243,0.1244,0.1285,0.1285,0.1284,0.1284,0.1431,0.1435,0.1439,0,0,0,0,0,0,0,0,0,0,0,0,0,0.116,0.116,0.1173,0.1173,0.1173,0.1241,0.1243,0.1245,0.1285,0.1285,0.1284,0.1283,0.1429,0.1434,0.144,0,0,0,0,0,0,0,0,0,0,0,0,0,0.1198,0.116,0.1173,0.1196,0.1198,0.1241,0.1243,0.1245,0.1285,0.1285,0.1284,0.1283,0.1427,0.1434,0.144,0.1498,0,0,0.1461,0.1464,0,0,0,0,0,0,0,0,0.1196,0.12,0.1192,0.1194,0.1197,0.1247,0.1292,0.1331,0.1286,0.1261,0.1284,0.1283,0.1372,0.1383,0.1408,0.1505,0.1511,0.1461,0.1465,0.1468,0.147,0,0,0,0,0,0,0,0.1193,0.1197,0.1209,0.1192,0.1195,0.123,0.1235,0.13,0.1328,0.1263,0.1264,0.1259,0.1374,0.1401,0.1412,0.1513,0.1461,0.1467,0.1471,0.1474,0.1667,0.1668,0,0,0,0,0,0,0.1165,0.1194,0.1206,0.121,0.1185,0.123,0.1236,0.1238,0.1326,0.1335,0.126,0.126,0.1391,0.1404,0.1417,0.1532,0.1468,0.1474,0.1478,0.1666,0.1667,0.1669,0,0,0,0,0,0,0.1165,0.1166,0.1203,0.1197,0.1203,0.123,0.1233,0.124,0.1271,0.1321,0.1333,0.1283,0.139,0.1408,0.1494,0.1536,0.1477,0.1483,0.1665,0.1666,0.1668,0.1735,0,0,0,0,0,0,0.1164,0.1166,0.1168,0.1195,0.1202,0.1235,0.1233,0.1241,0.1265,0.1268,0.1345,0.1357,0.1391,0.1483,0.15,0.1544,0.1489,0.1663,0.1665,0.1667,0.1731,0.1739,0.1745,0,0,0,0,0,0.1164,0.1182,0.1168,0.1169,0.1201,0.1235,0.1244,0.1265,0.1267,0.129,0.1347,0.1355,0.1507,0.1491,0.151,0.1557,0.1662,0.1665,0.1667,0.1728,0.1737,0.1745,0,0,0,0,0,0,0.1177,0.1187,0.1173,0.1191,0.1204,0.1239,0.126,0.1271,0.1335,0.1338,0.139,0.1408,0.1489,0.1512,0.1492,0.1613,0.1579,0.1585,0.1619,0.1628,0.1634,0.1703,0.1494,0,0,0,0,0,0.1174,0.1195,0.1197,0.1212,0.1214,0.1236,0.1253,0.1263,0.1311,0.1337,0.1396,0.1453,0.1515,0.1561,0.161,0.1698,0.177,0.1731,0.1738,0.1744,0.1809,0.1958,0.1987,0.1677,0.1677,0.1677,0,0,0.1185,0.119,0.1203,0.1216,0.1228,0.1271,0.1248,0.1273,0.1333,0.1346,0.1458,0.1481,0.1539,0.1628,0.1666,0.1658,0.1858,0.1747,0.1752,0.1816,0.1964,0.1995,0.2023,0.1679,0.1679,0.1678,0,0,0.1231,0.1215,0.1252,0.1268,0.1276,0.1293,0.1299,0.1336,0.1374,0.1454,0.1482,0.1555,0.1634,0.1715,0.1756,0.1838,0.188,0.1812,0.1929,0.2071,0.21,0.2126,0.2218,0.2252,0.1829,0.1829,0.1829,0,0.1256,0.1297,0.1268,0.1309,0.1355,0.1309,0.1384,0.1405,0.1474,0.1538,0.1491,0.1667,0.1695,0.1863,0.1877,0.1865,0.1928,0.1892,0.2087,0.2114,0.214,0.2229,0.2266,0.1832,0.1832,0.1831,0.1831,0,0.1329,0.137,0.1393,0.1441,0.1475,0.1528,0.1543,0.1581,0.1597,0.1639,0.1772,0.1819,0.1938,0.1929,0.1933,0.2125,0.2101,0.2069,0.2076,0.2177,0.2261,0.2298,0.1837,0.1836,0.1835,0.1834,0,0,0.1417,0.1451,0.1466,0.152,0.1566,0.1606,0.1687,0.1783,0.1858,0.1894,0.2048,0.2127,0.2138,0.2189,0.2199,0.2315,0.2511,0.2274,0.2279,0.2385,0.2806,0.2765,0.2801,0.2511,0.2519,0.2525,0.2778,0,0.1516,0.1608,0.1625,0.1754,0.1816,0.1829,0.1923,0.1985,0.202,0.2132,0.2191,0.2306,0.2238,0.2294,0.2406,0.2487,0.262,0.2445,0.2679,0.2686,0.2656,0.2848,0.2739,0.2957,0.2815,0.2821,0.2826,0,0.1626,0.1671,0.1804,0.1928,0.1963,0.2032,0.2177,0.2257,0.2361,0.2393,0.25,0.2518,0.2702,0.2602,0.286,0.2747,0.2811,0.2855,0.2865,0.2852,0.2719,0.284,0.303,0.2968,0.2883,0.2879,0.2875,0,0.1721,0.1832,0.1947,0.1986,0.2088,0.2175,0.2247,0.2345,0.2431,0.2571,0.2625,0.2805,0.2897,0.3033,0.3084,0.3003,0.3345,0.3239,0.3276,0.3269,0.3245,0.3225,0.3434,0.3477,0.3476,0.3476,0.3475,0,0.186,0.1957,0.1983,0.205,0.2186,0.2255,0.242,0.248,0.261,0.2715,0.2773,0.2877,0.3012,0.3164,0.3212,0.3376,0.3461,0.3383,0.338,0.3254,0.3233,0.3226,0.314,0.3485,0.3483,0.3481,0.348,0,0.1967,0.199,0.211,0.2205,0.2232,0.2332,0.2478,0.2567,0.2682,0.282,0.2875,0.3008,0.3193,0.3309,0.3536,0.3539,0.3608,0.3721,0.3537,0.351,0.3442,0.336,0.3455,0.3358,0.3834,0.3835,0.3836,0,0.2043,0.2099,0.2182,0.221,0.2256,0.2381,0.2446,0.2582,0.2665,0.2871,0.2935,0.3148,0.325,0.3566,0.3651,0.3814,0.3673,0.3799,0.3643,0.3518,0.3427,0.3229,0.3124,0.3616,0.3615,0.3615,0.3614,0,0.2154,0.2163,0.2219,0.226,0.2317,0.2403,0.251,0.2578,0.2734,0.2846,0.2992,0.3107,0.3366,0.3493,0.3705,0.3765,0.3617,0.3787,0.3747,0.3393,0.3113,0.2986,0.3321,0.3608,0.3609,0.3609,0.3609,0.361,0.2196,0.2234,0.2255,0.2297,0.2343,0.2388,0.2432,0.2536,0.2661,0.2786,0.2954,0.307,0.3317,0.3582,0.3638,0.3667,0.3572,0.3604,0.3553,0.3394,0.3205,0.351,0.3721,0.3722,0.3723,0.3724,0.3725,0,0.2219,0.2236,0.2277,0.2297,0.2303,0.2344,0.2429,0.2444,0.2521,0.2682,0.2807,0.3021,0.3193,0.3355,0.3503,0.3459,0.3278,0.3404,0.3125,0.3059,0.3455,0.335,0.3381,0.3381,0.3381,0.3381,0.3381,0.3382,0.221,0.224,0.2248,0.2224,0.2224,0.2207,0.2222,0.2257,0.2354,0.2459,0.2559,0.2708,0.3018,0.3309,0.3333,0.3265,0.3036,0.2937,0.2908,0.3204,0.3217,0.323,0.3117,0.3099,0.3099,0.2402,0.2396,0.2392]},{"header":{"parameterUnit":"m.s-1","parameterCategory":2,"la1":30.2991,"la2":30.254,"lo1":-89.0895,"lo2":-89.0444,"dy":0.0017,"dx":0.0017,"nx":28,"ny":28,"refTime":"2024-11-28T03:00:00:Z","depth":"0","parameterNumber":3,"parameterNumberName":"V-component_of_CURRENTS"},"data":[0,0,0,0,0,0,0,0,0,0,0,0,0,0,0,0,0,0,0,0,0,0,0,0,0,0,0,0,0,0,0,0,0,0,0,0,0,0,0,0,0,0,0,0,0,0,0,0,0,0,0,0,0,0,0,0,0,0,0.0391,0.039,0,0.0365,0.0365,0.0366,0.039,0.039,0.039,0.039,0.0356,0.0355,0.0354,0,0,0,0,0,0,0,0,0,0,0,0,0,0.0423,0.0423,0.0391,0.0389,0.0388,0.0365,0.0365,0.0366,0.039,0.039,0.039,0.039,0.0356,0.0355,0.0354,0,0,0,0,0,0,0,0,0,0,0,0,0,0.0413,0.0423,0.0391,0.039,0.0389,0.0365,0.0365,0.0366,0.039,0.039,0.039,0.039,0.0357,0.0355,0.0354,0.0342,0,0,0.035,0.0349,0,0,0,0,0,0,0,0,0.0414,0.0413,0.0392,0.039,0.0389,0.0372,0.0364,0.0354,0.039,0.04,0.039,0.039,0.0354,0.0353,0.0362,0.0341,0.0339,0.0349,0.0348,0.0348,0.0347,0,0,0,0,0,0,0,0.0415,0.0414,0.039,0.039,0.0388,0.0377,0.0378,0.0363,0.0384,0.0399,0.0398,0.038,0.0355,0.0363,0.0361,0.0339,0.0349,0.0348,0.0347,0.0347,0.032,0.0321,0,0,0,0,0,0,0.04,0.0415,0.0391,0.0388,0.0391,0.0376,0.0377,0.0385,0.0384,0.0381,0.038,0.0381,0.0366,0.0363,0.036,0.0399,0.0348,0.0347,0.0346,0.032,0.032,0.0321,0,0,0,0,0,0,0.0402,0.04,0.0392,0.0392,0.0389,0.0375,0.0384,0.0384,0.0392,0.0368,0.0367,0.0385,0.0366,0.0362,0.0374,0.0395,0.0346,0.0345,0.032,0.032,0.0321,0.0442,0,0,0,0,0,0,0.0403,0.0401,0.041,0.0392,0.0388,0.0385,0.0383,0.0384,0.0375,0.0377,0.0372,0.0369,0.0366,0.0377,0.0373,0.0392,0.0343,0.032,0.032,0.0321,0.0438,0.0447,0.0454,0,0,0,0,0,0.0405,0.0418,0.0411,0.0407,0.0399,0.0384,0.0383,0.0379,0.0375,0.0386,0.0397,0.037,0.0375,0.0377,0.0372,0.0391,0.032,0.032,0.032,0.0434,0.0445,0.0454,0,0,0,0,0,0,0.0443,0.0419,0.0412,0.042,0.0402,0.0385,0.0382,0.0377,0.0394,0.0395,0.0386,0.0385,0.0398,0.037,0.0372,0.0379,0.0336,0.0335,0.0424,0.0433,0.0441,0.0488,0.0342,0,0,0,0,0,0.045,0.0452,0.0425,0.043,0.0417,0.0399,0.0392,0.0388,0.0388,0.0395,0.0404,0.0398,0.0394,0.0397,0.0386,0.0398,0.0366,0.0398,0.0406,0.0414,0.0445,0.0413,0.0422,0.0322,0.0322,0.0322,0,0,0.0463,0.0448,0.045,0.0436,0.042,0.0441,0.0399,0.0387,0.0431,0.0386,0.0457,0.0425,0.04,0.0425,0.0425,0.0409,0.042,0.0414,0.0421,0.0449,0.0415,0.0425,0.0434,0.0322,0.0322,0.0322,0,0,0.0499,0.0476,0.0497,0.0482,0.0453,0.0455,0.0451,0.0444,0.0467,0.0505,0.0486,0.0482,0.0483,0.0487,0.048,0.0519,0.0459,0.0489,0.0581,0.055,0.0559,0.0567,0.0528,0.0531,0.05,0.05,0.05,0,0.053,0.0548,0.0499,0.0514,0.0516,0.0469,0.0506,0.0523,0.0536,0.057,0.0541,0.0559,0.0523,0.0566,0.0578,0.0543,0.0507,0.0555,0.0565,0.0571,0.0577,0.0536,0.0538,0.0506,0.0506,0.0505,0.0504,0,0.0581,0.0596,0.0598,0.0621,0.0619,0.0628,0.0631,0.0663,0.0673,0.0694,0.0732,0.0693,0.0707,0.0676,0.0644,0.0667,0.0621,0.0576,0.0551,0.0596,0.0547,0.0548,0.0515,0.0513,0.0511,0.0509,0,0,0.0668,0.0651,0.0654,0.068,0.0674,0.0686,0.0753,0.0812,0.0874,0.0875,0.0959,0.0927,0.0891,0.0879,0.0821,0.0792,0.078,0.0709,0.0705,0.0692,0.0706,0.0704,0.0703,0.0734,0.0734,0.0735,0.0653,0,0.0741,0.0798,0.0771,0.0844,0.0875,0.0855,0.0929,0.0967,0.0995,0.1066,0.1029,0.1067,0.0973,0.0969,0.093,0.0823,0.0787,0.0807,0.0648,0.0644,0.0654,0.0706,0.0639,0.0564,0.0653,0.0653,0.0653,0,0.0804,0.0843,0.092,0.0967,0.098,0.1026,0.1118,0.1176,0.1242,0.1256,0.1277,0.1246,0.1233,0.1125,0.0998,0.1012,0.0878,0.078,0.0773,0.0739,0.0644,0.0533,0.056,0.033,0.0652,0.0652,0.0652,0,0.0882,0.0942,0.1016,0.1025,0.108,0.113,0.118,0.1244,0.1311,0.1382,0.1426,0.1399,0.1395,0.1244,0.1055,0.1022,0.0896,0.0818,0.0693,0.0689,0.0589,0.0577,0.0398,0.0724,0.0724,0.0724,0.0724,0,0.0951,0.1003,0.106,0.1091,0.1203,0.1212,0.1332,0.1371,0.1453,0.1541,0.1527,0.1585,0.1421,0.1336,0.1125,0.0934,0.0948,0.0738,0.0684,0.0627,0.0619,0.0379,0.028,0.0721,0.0722,0.0722,0.0723,0,0.0974,0.1014,0.1101,0.1192,0.1226,0.1302,0.1409,0.1486,0.1561,0.1674,0.1705,0.1735,0.1637,0.145,0.1219,0.1043,0.0717,0.0752,0.0703,0.0648,0.0336,0.0247,0.0099,0.0023,0.0617,0.0616,0.0616,0,0.0988,0.1033,0.1155,0.1212,0.1246,0.1362,0.1431,0.1527,0.1609,0.176,0.1816,0.1814,0.182,0.1532,0.1201,0.088,0.069,0.0631,0.0564,0.0343,0.0202,0.0163,0.0107,0.0453,0.0452,0.0451,0.045,0,0.1011,0.1048,0.1108,0.123,0.1316,0.1426,0.154,0.1626,0.1749,0.1869,0.1996,0.2035,0.1807,0.1529,0.1147,0.089,0.0493,0.0598,0.0364,0.0085,0.0032,-0.0075,0.0475,0.0438,0.0439,0.044,0.0441,0.0441,0.1015,0.1056,0.1136,0.124,0.1341,0.1463,0.156,0.1691,0.1854,0.2038,0.2089,0.216,0.1792,0.1285,0.0967,0.0327,0.0386,0.0112,0.0028,0.0013,-0.0062,0.049,0.0404,0.0405,0.0406,0.0406,0.0407,0,0.1029,0.1062,0.1144,0.1274,0.1363,0.1431,0.1606,0.172,0.1907,0.2077,0.221,0.204,0.1547,0.1036,0.0233,-0.0179,-0.032,-0.0413,-0.0542,-0.0567,-0.0113,-0.0126,-0.0324,-0.0324,-0.0324,-0.0324,-0.0324,-0.0323,0.1041,0.1091,0.1125,0.1261,0.1346,0.1495,0.1595,0.178,0.1939,0.2137,0.2177,0.222,0.1773,0.0409,-0.053,-0.0734,-0.0999,-0.1059,-0.1133,-0.0918,-0.0877,-0.0839,-0.0878,-0.1231,-0.1232,-0.1579,-0.1583,-0.1587]}],[{"header":{"parameterUnit":"m.s-1","parameterCategory":2,"la1":30.2991,"la2":30.254,"lo1":-89.0895,"lo2":-89.0444,"dy":0.0017,"dx":0.0017,"nx":28,"ny":28,"refTime":"2024-11-28T03:00:00:Z","depth":"2","parameterNumber":2,"parameterNumberName":"U-component_of_CURRENTS"},"data":[0,0,0,0,0,0,0,0,0,0,0,0,0,0,0,0,0,0,0,0,0,0,0,0,0,0,0,0,0,0,0,0,0,0,0,0,0,0,0,0,0,0,0,0,0,0,0,0,0,0,0,0,0,0,0,0,0,0,0.0574,0.0574,0,0.0643,0.0644,0.0645,0.0665,0.0664,0.0663,0.0663,0.0694,0.0695,0.0696,0,0,0,0,0,0,0,0,0,0,0,0,0,0.0619,0.0617,0.0574,0.0574,0.0575,0.0643,0.0644,0.0645,0.0665,0.0664,0.0663,0.0663,0.0693,0.0695,0.0696,0,0,0,0,0,0,0,0,0,0,0,0,0,0.0636,0.0616,0.0573,0.0591,0.0593,0.0643,0.0644,0.0646,0.0665,0.0664,0.0663,0.0662,0.0693,0.0695,0.0697,0.0727,0,0,0.0703,0.0704,0,0,0,0,0,0,0,0,0.0635,0.0635,0.0588,0.059,0.0593,0.0642,0.0671,0.067,0.0665,0.064,0.0663,0.0662,0.0672,0.0676,0.0695,0.0728,0.073,0.0703,0.0704,0.0705,0.0706,0,0,0,0,0,0,0,0.0634,0.0633,0.0603,0.0589,0.0591,0.0651,0.0651,0.0672,0.0661,0.0642,0.0643,0.0648,0.0673,0.0693,0.0695,0.073,0.0703,0.0705,0.0706,0.0707,0.0725,0.0725,0,0,0,0,0,0,0.0613,0.0631,0.0601,0.0605,0.061,0.065,0.065,0.0629,0.0662,0.0666,0.0648,0.0648,0.0689,0.0693,0.0696,0.0815,0.0705,0.0707,0.0708,0.0726,0.0725,0.0724,0,0,0,0,0,0,0.0613,0.0609,0.0598,0.062,0.0622,0.0648,0.0626,0.0631,0.0676,0.0667,0.067,0.069,0.0689,0.0693,0.0709,0.0813,0.0708,0.071,0.0727,0.0726,0.0725,0.1,0,0,0,0,0,0,0.0614,0.0608,0.0599,0.0617,0.062,0.0632,0.0626,0.0633,0.0677,0.0679,0.0703,0.0704,0.0689,0.0705,0.0711,0.0814,0.0712,0.0728,0.0726,0.0725,0.0992,0.1008,0.1022,0,0,0,0,0,0.0615,0.0621,0.0597,0.0595,0.0601,0.0632,0.064,0.0659,0.068,0.0699,0.0702,0.0704,0.0699,0.0708,0.0714,0.082,0.0729,0.0727,0.0725,0.0985,0.1005,0.1022,0,0,0,0,0,0,0.0641,0.0623,0.0598,0.0596,0.0606,0.0635,0.0673,0.0684,0.0709,0.0711,0.0713,0.0713,0.0769,0.0717,0.0726,0.0799,0.0708,0.0708,0.0903,0.0922,0.0937,0.0963,0.0713,0,0,0,0,0,0.0635,0.0622,0.0621,0.0613,0.0637,0.066,0.0684,0.0682,0.0702,0.0716,0.0741,0.0739,0.0764,0.078,0.0773,0.0828,0.0809,0.0878,0.0894,0.0909,0.0921,0.1,0.1028,0.0719,0.0719,0.0719,0,0,0.0648,0.0627,0.0626,0.0617,0.0643,0.0689,0.0676,0.071,0.0762,0.0714,0.081,0.0807,0.0782,0.0844,0.0863,0.0823,0.0976,0.0907,0.0922,0.0925,0.1002,0.1034,0.1062,0.0718,0.0718,0.0718,0,0,0.0681,0.0652,0.0672,0.0689,0.0704,0.0718,0.0736,0.0779,0.082,0.0872,0.0869,0.092,0.0938,0.0974,0.0986,0.1068,0.1057,0.1051,0.118,0.126,0.1289,0.1315,0.1322,0.1347,0.1063,0.1063,0.1064,0,0.068,0.0698,0.0688,0.0724,0.0732,0.0744,0.0778,0.0847,0.0884,0.0905,0.0912,0.0998,0.1013,0.112,0.1162,0.1127,0.1126,0.1145,0.1295,0.1319,0.1341,0.1342,0.1366,0.1076,0.1075,0.1074,0.1072,0,0.0736,0.0764,0.0795,0.0821,0.0828,0.0861,0.0913,0.0948,0.099,0.1039,0.1145,0.1196,0.1237,0.1275,0.1268,0.1428,0.1362,0.1323,0.1285,0.1392,0.1381,0.1402,0.1095,0.109,0.1087,0.1083,0,0,0.0707,0.0803,0.0819,0.0828,0.0867,0.0864,0.0951,0.1001,0.1038,0.1166,0.1241,0.1399,0.1445,0.1458,0.1496,0.1595,0.1786,0.1548,0.1546,0.1619,0.1924,0.169,0.1688,0.1799,0.1804,0.1808,0.1856,0,0.075,0.0792,0.0843,0.0901,0.0923,0.0936,0.0993,0.1028,0.1086,0.1172,0.1322,0.1417,0.1522,0.1556,0.1709,0.1721,0.1849,0.1772,0.175,0.1747,0.1584,0.1708,0.1693,0.1718,0.1874,0.1878,0.188,0,0.0786,0.0801,0.0837,0.0869,0.0883,0.0927,0.0911,0.0974,0.1095,0.1141,0.1313,0.1415,0.1635,0.1681,0.1918,0.1864,0.1946,0.1978,0.1979,0.168,0.1552,0.1628,0.1747,0.1912,0.1909,0.1907,0.1905,0,0.0703,0.0794,0.079,0.081,0.0866,0.0877,0.0904,0.0956,0.1001,0.1149,0.1192,0.1449,0.1573,0.1756,0.1884,0.1921,0.2054,0.2089,0.197,0.1951,0.1884,0.1849,0.2291,0.2291,0.2291,0.229,0.229,0,0.0683,0.0704,0.0763,0.0789,0.0781,0.0811,0.0839,0.088,0.0964,0.1042,0.1226,0.1348,0.1611,0.1728,0.1863,0.1936,0.2058,0.2014,0.1971,0.1964,0.1936,0.2044,0.2015,0.2292,0.2292,0.2291,0.2291,0,0.0586,0.0643,0.0675,0.0744,0.0766,0.0747,0.0829,0.0843,0.0917,0.102,0.1086,0.1297,0.1448,0.1598,0.18,0.186,0.1937,0.1933,0.1851,0.1797,0.1804,0.1788,0.1869,0.1862,0.1856,0.185,0.1846,0,0.0516,0.0527,0.0633,0.0661,0.072,0.0732,0.0748,0.082,0.085,0.1009,0.1058,0.1221,0.1364,0.1475,0.1569,0.1665,0.1778,0.1656,0.1747,0.1823,0.1774,0.1767,0.1759,0.1785,0.1781,0.1777,0.1774,0,0.0398,0.0466,0.0494,0.0574,0.0625,0.0667,0.072,0.0731,0.0824,0.0902,0.1026,0.1141,0.1276,0.139,0.1404,0.1464,0.1626,0.1575,0.1741,0.1829,0.173,0.1684,0.1684,0.1741,0.1745,0.1747,0.1749,0.175,0.0301,0.0299,0.0386,0.0447,0.0513,0.0586,0.0618,0.0683,0.073,0.0878,0.0979,0.116,0.1264,0.1324,0.1301,0.1278,0.1396,0.1457,0.1477,0.15,0.1417,0.1306,0.122,0.1221,0.1221,0.1221,0.1221,0,0.0156,0.0204,0.0257,0.0343,0.0385,0.05,0.0572,0.0602,0.0663,0.0879,0.1011,0.1062,0.1179,0.1261,0.1228,0.1182,0.1253,0.1134,0.1327,0.1358,0.1386,0.1306,0.1077,0.1076,0.1075,0.1074,0,0,0.0089,0.0101,0.0154,0.0189,0.0276,0.0367,0.0426,0.0507,0.0652,0.0806,0.0985,0.1211,0.1301,0.1228,0.1187,0.1167,0.1249,0.1102,0.1231,0.1496,0.1524,0.1587,0.1495,0,0,0,0,0]},{"header":{"parameterUnit":"m.s-1","parameterCategory":2,"la1":30.2991,"la2":30.254,"lo1":-89.0895,"lo2":-89.0444,"dy":0.0017,"dx":0.0017,"nx":28,"ny":28,"refTime":"2024-11-28T03:00:00:Z","depth":"2","parameterNumber":3,"parameterNumberName":"V-component_of_CURRENTS"},"data":[0,0,0,0,0,0,0,0,0,0,0,0,0,0,0,0,0,0,0,0,0,0,0,0,0,0,0,0,0,0,0,0,0,0,0,0,0,0,0,0,0,0,0,0,0,0,0,0,0,0,0,0,0,0,0,0,0,0,-0.0102,-0.0104,0,-0.0205,-0.0205,-0.0205,-0.0185,-0.0184,-0.0183,-0.0182,-0.023,-0.0232,-0.0234,0,0,0,0,0,0,0,0,0,0,0,0,0,0.0009,0.0008,-0.0101,-0.0104,-0.0106,-0.0205,-0.0205,-0.0205,-0.0185,-0.0184,-0.0183,-0.0182,-0.023,-0.0232,-0.0235,0,0,0,0,0,0,0,0,0,0,0,0,0,-0.005,0.0008,-0.0101,-0.0116,-0.0119,-0.0205,-0.0205,-0.0205,-0.0185,-0.0184,-0.0183,-0.0181,-0.0229,-0.0232,-0.0235,-0.028,0,0,-0.0244,-0.0246,0,0,0,0,0,0,0,0,-0.0047,-0.0053,-0.0112,-0.0115,-0.0119,-0.019,-0.0185,-0.0231,-0.0185,-0.0148,-0.0182,-0.0181,-0.022,-0.0224,-0.0231,-0.0282,-0.0284,-0.0245,-0.0247,-0.0248,-0.0249,0,0,0,0,0,0,0,-0.0042,-0.0049,-0.0131,-0.0114,-0.0119,-0.0155,-0.0159,-0.0193,-0.018,-0.0151,-0.0153,-0.0183,-0.022,-0.0228,-0.0232,-0.0285,-0.0245,-0.0247,-0.0249,-0.0251,-0.0374,-0.0375,0,0,0,0,0,0,-0.0048,-0.0045,-0.0128,-0.0135,-0.0092,-0.0158,-0.0163,-0.016,-0.0181,-0.0187,-0.0184,-0.0182,-0.0223,-0.0228,-0.0234,-0.0186,-0.0248,-0.0251,-0.0253,-0.0372,-0.0374,-0.0376,0,0,0,0,0,0,-0.0045,-0.0053,-0.0124,-0.0103,-0.0116,-0.0161,-0.0158,-0.0163,-0.0145,-0.0209,-0.021,-0.016,-0.0222,-0.0229,-0.0237,-0.0192,-0.0252,-0.0255,-0.0371,-0.0373,-0.0375,-0.0156,0,0,0,0,0,0,-0.0041,-0.005,-0.0041,-0.0102,-0.0118,-0.0139,-0.0161,-0.0166,-0.0173,-0.0169,-0.019,-0.0194,-0.0222,-0.0232,-0.024,-0.0197,-0.0257,-0.0369,-0.0372,-0.0374,-0.0162,-0.0151,-0.0141,0,0,0,0,0,-0.0036,-0.003,-0.0038,-0.005,-0.0104,-0.0139,-0.0147,-0.017,-0.0172,-0.0149,-0.0172,-0.0192,-0.0257,-0.0235,-0.0244,-0.02,-0.0368,-0.0371,-0.0374,-0.0166,-0.0153,-0.0141,0,0,0,0,0,0,0.0036,-0.0031,-0.0041,-0.005,-0.0078,-0.0139,-0.0145,-0.0155,-0.0156,-0.0153,-0.0191,-0.0197,-0.0193,-0.0253,-0.0228,-0.026,-0.0325,-0.033,-0.0164,-0.0152,-0.0142,-0.0123,-0.026,0,0,0,0,0,0.0048,0.0018,-0.0022,-0.0039,-0.0042,-0.0085,-0.0103,-0.0114,-0.014,-0.0137,-0.0155,-0.0197,-0.0223,-0.0226,-0.027,-0.0272,-0.0343,-0.0268,-0.0258,-0.0248,-0.0249,-0.0317,-0.031,-0.0386,-0.0386,-0.0386,0,0,0.0053,0.0015,-0.0006,-0.0031,-0.0057,-0.0056,-0.0087,-0.0104,-0.0086,-0.0147,-0.0119,-0.0155,-0.0223,-0.0217,-0.0224,-0.0248,-0.0266,-0.0252,-0.0241,-0.0249,-0.0319,-0.0311,-0.0304,-0.0388,-0.0388,-0.0388,0,0,0.0048,0.0039,0.0025,0.0004,-0.0033,-0.0038,-0.003,-0.0058,-0.0036,-0.0031,-0.0072,-0.0078,-0.0123,-0.0144,-0.0166,-0.0142,-0.0213,-0.0168,-0.0077,-0.014,-0.0133,-0.0127,-0.0189,-0.019,-0.0154,-0.0154,-0.0154,0,0.0055,0.0053,0.0018,0.0006,-0.0034,-0.0016,-0.003,0.001,-0.0014,-0.0015,-0.0,-0.0065,-0.0088,-0.0094,-0.0063,-0.0106,-0.0164,-0.009,-0.0118,-0.0114,-0.0112,-0.0177,-0.0181,-0.0144,-0.0145,-0.0146,-0.0147,0,0.0036,0.0049,0.004,0.0032,-0.0005,-0.0006,0.0006,0.0038,0.0063,0.0073,0.0085,0.0069,0.0028,0.0029,0.0014,0.0014,-0.0038,-0.0089,-0.0121,-0.0089,-0.0163,-0.0171,-0.0129,-0.0133,-0.0136,-0.0138,0,0,0.001,0.003,0.0026,0.0016,0.0003,-0.0036,0.0015,0.0041,0.0064,0.0118,0.0125,0.0154,0.0162,0.0132,0.0117,0.0095,0.0104,0.0039,0.0031,0.0026,-0.0034,-0.0115,-0.0133,0.0063,0.0062,0.0061,-0.0082,0,0.0017,0.0017,0.0001,-0.0012,-0.001,-0.0023,0.0003,0.0013,0.0062,0.0102,0.0146,0.0159,0.0204,0.0201,0.0207,0.0094,0.0087,0.0147,-0.0111,-0.0119,-0.0153,-0.0144,-0.0087,-0.0214,-0.009,-0.0092,-0.0093,0,-0.0007,0.0003,-0.001,-0.0037,-0.0048,-0.005,-0.0076,-0.005,0.0028,0.0056,0.0119,0.016,0.0192,0.0211,0.0123,0.0159,0.01,0.0029,0.002,-0.0141,-0.0216,-0.024,-0.0235,-0.0108,-0.0107,-0.0106,-0.0105,0,-0.0046,-0.0029,-0.0043,-0.0062,-0.0065,-0.0086,-0.008,-0.006,-0.0035,0.0044,0.0079,0.0119,0.0149,0.0083,0.0026,0.0066,-0.0124,-0.011,-0.0234,-0.0241,-0.0292,-0.0303,-0.0172,-0.0172,-0.0171,-0.0171,-0.0171,0,-0.006,-0.0065,-0.0042,-0.0055,-0.0059,-0.012,-0.0118,-0.0086,-0.0056,-0.0003,0.0082,0.0143,0.0124,0.0063,-0.0013,-0.0163,-0.0154,-0.0224,-0.0286,-0.0219,-0.0221,-0.022,-0.0224,-0.0176,-0.0175,-0.0174,-0.0173,0,-0.0104,-0.0073,-0.0083,-0.0081,-0.0065,-0.0096,-0.0091,-0.0079,-0.0054,0.0017,0.0056,0.0139,0.0073,-0.0011,-0.0161,-0.0221,-0.0384,-0.0438,-0.0355,-0.0403,-0.0437,-0.0428,-0.0571,-0.0575,-0.0579,-0.0582,-0.0584,0,-0.0135,-0.0128,-0.0104,-0.0078,-0.0055,-0.0066,-0.0046,-0.0048,-0.0028,0.0036,0.0081,0.0074,0.01,-0.0175,-0.0306,-0.0513,-0.0489,-0.0606,-0.0505,-0.0433,-0.0479,-0.0465,-0.0452,-0.0479,-0.048,-0.0481,-0.0482,0,-0.0183,-0.0164,-0.0162,-0.0071,-0.004,-0.0007,0.0028,0.0044,0.0054,0.0105,0.016,0.0165,-0.0001,-0.0151,-0.0436,-0.0547,-0.0572,-0.0636,-0.0615,-0.0393,-0.036,-0.04,-0.0388,-0.0492,-0.0491,-0.049,-0.049,-0.049,-0.0227,-0.0216,-0.0167,-0.0088,-0.0021,0.0073,0.0129,0.0158,0.0202,0.0291,0.023,0.0254,0.0034,-0.0258,-0.0482,-0.0652,-0.0639,-0.0678,-0.0668,-0.0659,-0.0629,-0.0605,-0.0777,-0.0778,-0.0778,-0.0779,-0.0779,0,-0.0273,-0.0218,-0.0163,-0.0055,0.0039,0.0106,0.0198,0.0259,0.0359,0.0391,0.0413,0.0231,0.0018,-0.0197,-0.0448,-0.0672,-0.0611,-0.0721,-0.058,-0.0572,-0.0565,-0.0522,-0.0646,-0.0646,-0.0646,-0.0646,0,0,-0.0283,-0.0234,-0.0179,-0.0013,0.0098,0.0287,0.0378,0.0463,0.0525,0.0556,0.0562,0.044,0.013,-0.0039,-0.0332,-0.0456,-0.0442,-0.0474,-0.0564,-0.0355,-0.0343,-0.0539,-0.0468,0,0,0,0,0]}],[{"header":{"parameterUnit":"m.s-1","parameterCategory":2,"la1":30.2991,"la2":30.254,"lo1":-89.0895,"lo2":-89.0444,"dy":0.0017,"dx":0.0017,"nx":28,"ny":28,"refTime":"2024-11-28T03:00:00:Z","depth":"4","parameterNumber":2,"parameterNumberName":"U-component_of_CURRENTS"},"data":[0,0,0,0,0,0,0,0,0,0,0,0,0,0,0,0,0,0,0,0,0,0,0,0,0,0,0,0,0,0,0,0,0,0,0,0,0,0,0,0,0,0,0,0,0,0,0,0,0,0,0,0,0,0,0,0,0,0,0.0143,0.0144,0,0.0198,0.0198,0.0198,0.0225,0.0225,0.0225,0.0225,0.0249,0.025,0.025,0,0,0,0,0,0,0,0,0,0,0,0,0,0.0088,0.0089,0.0143,0.0144,0.0145,0.0198,0.0198,0.0199,0.0225,0.0225,0.0225,0.0226,0.0249,0.025,0.025,0,0,0,0,0,0,0,0,0,0,0,0,0,0.0122,0.0089,0.0143,0.0166,0.0169,0.0197,0.0198,0.0199,0.0225,0.0225,0.0225,0.0226,0.0249,0.0249,0.025,0.0248,0,0,0.0252,0.0252,0,0,0,0,0,0,0,0,0.012,0.0124,0.0162,0.0164,0.0168,0.0207,0.0188,0.0215,0.0225,0.0201,0.0225,0.0226,0.0233,0.0235,0.0242,0.0249,0.025,0.0252,0.0253,0.0253,0.0253,0,0,0,0,0,0,0,0.0117,0.0122,0.0162,0.0163,0.0166,0.0183,0.0188,0.0193,0.0212,0.0203,0.0206,0.0215,0.0235,0.0241,0.0243,0.0251,0.0252,0.0253,0.0253,0.0253,0.0271,0.0271,0,0,0,0,0,0,0.0114,0.0119,0.0161,0.0164,0.0147,0.0184,0.0189,0.0192,0.0213,0.0218,0.0215,0.0217,0.024,0.0242,0.0244,0.0247,0.0253,0.0254,0.0254,0.0271,0.0271,0.0271,0,0,0,0,0,0,0.0112,0.0117,0.0158,0.0145,0.0152,0.0184,0.0188,0.0193,0.0198,0.0223,0.0227,0.0215,0.024,0.0243,0.025,0.0248,0.0254,0.0254,0.0271,0.0271,0.0271,0.0251,0,0,0,0,0,0,0.011,0.0116,0.0129,0.0145,0.0153,0.017,0.0188,0.0194,0.0205,0.0207,0.0224,0.0227,0.0241,0.0249,0.0251,0.0249,0.0255,0.0271,0.0271,0.0271,0.0252,0.0251,0.025,0,0,0,0,0,0.0108,0.0125,0.0129,0.0135,0.0166,0.017,0.0175,0.0198,0.0205,0.0203,0.022,0.0226,0.0251,0.025,0.0252,0.025,0.0271,0.0271,0.0271,0.0252,0.0251,0.025,0,0,0,0,0,0,0.0103,0.013,0.0135,0.0157,0.0159,0.0175,0.0189,0.0193,0.0205,0.0215,0.0225,0.0229,0.0234,0.0245,0.0243,0.0257,0.0263,0.0263,0.0248,0.0247,0.0246,0.0253,0.0256,0,0,0,0,0,0.0109,0.0128,0.014,0.0153,0.0158,0.0168,0.0178,0.0189,0.0199,0.0206,0.0212,0.0227,0.0237,0.0244,0.0253,0.0259,0.0271,0.026,0.0259,0.0258,0.0266,0.0274,0.0274,0.0272,0.0272,0.0272,0,0,0.0105,0.0127,0.0134,0.0154,0.0162,0.0172,0.0174,0.0188,0.0189,0.0206,0.021,0.022,0.0236,0.0245,0.0249,0.0254,0.0266,0.0258,0.0257,0.0267,0.0274,0.0274,0.0275,0.0272,0.0272,0.0272,0,0,0.0107,0.0127,0.0142,0.0153,0.0174,0.018,0.0178,0.0187,0.0185,0.0189,0.0203,0.0213,0.0222,0.0237,0.0246,0.0244,0.0257,0.0244,0.0249,0.0255,0.0256,0.0256,0.0274,0.0276,0.0248,0.0248,0.0248,0,0.0109,0.0125,0.0143,0.0163,0.0183,0.0179,0.0195,0.0185,0.0193,0.0192,0.0189,0.021,0.022,0.0236,0.0241,0.0241,0.0251,0.025,0.0253,0.0254,0.0255,0.0273,0.0276,0.0247,0.0247,0.0247,0.0247,0,0.0118,0.0137,0.0145,0.0172,0.0194,0.0202,0.0205,0.0203,0.0199,0.0193,0.0193,0.0203,0.0224,0.022,0.0232,0.0244,0.0251,0.0246,0.0255,0.0254,0.0273,0.0276,0.0245,0.0246,0.0246,0.0246,0,0,0.0106,0.0144,0.015,0.0163,0.0205,0.0215,0.0225,0.0224,0.0231,0.021,0.0215,0.0218,0.0223,0.0234,0.0243,0.0245,0.0258,0.0251,0.0252,0.0267,0.0282,0.0325,0.0333,0.025,0.0251,0.0251,0.0294,0,0.0104,0.0141,0.0171,0.0195,0.021,0.0234,0.0252,0.0261,0.0252,0.0249,0.0231,0.0243,0.0225,0.025,0.0242,0.0258,0.0265,0.0248,0.0284,0.0285,0.0322,0.0338,0.0252,0.0296,0.0297,0.0297,0.0298,0,0.0107,0.0134,0.0167,0.0216,0.0228,0.0245,0.0288,0.03,0.0298,0.0303,0.0297,0.0288,0.0291,0.0277,0.0284,0.0273,0.0283,0.0283,0.0284,0.0337,0.0335,0.0298,0.0303,0.0303,0.0303,0.0302,0.0302,0,0.009,0.0132,0.0159,0.0176,0.0231,0.0249,0.0275,0.0308,0.0327,0.0332,0.036,0.0339,0.0359,0.0338,0.0344,0.0318,0.0355,0.0319,0.0364,0.0367,0.0322,0.0321,0.0331,0.0331,0.0331,0.0331,0.0331,0,0.0081,0.0102,0.0143,0.0152,0.0188,0.0245,0.0276,0.0305,0.0355,0.0386,0.0383,0.0413,0.0378,0.039,0.0366,0.0389,0.0376,0.0378,0.0385,0.0313,0.0311,0.0324,0.0323,0.0333,0.0332,0.0332,0.0332,0,0.0058,0.0087,0.011,0.0159,0.0173,0.0201,0.027,0.0296,0.0365,0.0411,0.0426,0.0473,0.0502,0.048,0.0476,0.045,0.0448,0.0465,0.0416,0.0417,0.0444,0.0441,0.0498,0.05,0.0502,0.0503,0.0505,0,0.0052,0.0058,0.0098,0.0113,0.0126,0.0166,0.0202,0.028,0.0316,0.0445,0.0466,0.0537,0.0554,0.0585,0.0558,0.054,0.053,0.0531,0.0456,0.0463,0.0463,0.0457,0.0452,0.0507,0.0508,0.0508,0.0509,0,0.0031,0.0044,0.0062,0.0085,0.0107,0.0144,0.0192,0.0232,0.0341,0.0399,0.0515,0.056,0.0612,0.0604,0.0626,0.0594,0.052,0.0548,0.0542,0.0471,0.0474,0.0472,0.0465,0.0514,0.0513,0.0513,0.0513,0,0.0016,0.0023,0.0042,0.0067,0.0093,0.0133,0.0158,0.0235,0.0303,0.0454,0.0485,0.0569,0.0616,0.0637,0.0638,0.0638,0.0604,0.0564,0.0557,0.0551,0.0547,0.0557,0.0642,0,0,0,0,0,0.0005,0.0015,0.0027,0.0065,0.0089,0.0113,0.017,0.0206,0.0303,0.0384,0.045,0.0504,0.0576,0.0607,0.0611,0.0626,0.0578,0.0628,0.052,0.0546,0.054,0.053,0,0,0,0,0,0,-0.0003,0.0009,0.0023,0.0061,0.0087,0.0126,0.0165,0.0228,0.028,0.0377,0.0408,0.0487,0.0534,0.057,0.0607,0.0614,0.0541,0.0673,0.0673,0.055,0.0544,0.0539,0.0526,0,0,0,0,0]},{"header":{"parameterUnit":"m.s-1","parameterCategory":2,"la1":30.2991,"la2":30.254,"lo1":-89.0895,"lo2":-89.0444,"dy":0.0017,"dx":0.0017,"nx":28,"ny":28,"refTime":"2024-11-28T03:00:00:Z","depth":"4","parameterNumber":3,"parameterNumberName":"V-component_of_CURRENTS"},"data":[0,0,0,0,0,0,0,0,0,0,0,0,0,0,0,0,0,0,0,0,0,0,0,0,0,0,0,0,0,0,0,0,0,0,0,0,0,0,0,0,0,0,0,0,0,0,0,0,0,0,0,0,0,0,0,0,0,0,-0.0423,-0.0424,0,-0.0443,-0.0443,-0.0443,-0.0476,-0.0477,-0.0478,-0.0479,-0.0539,-0.054,-0.0541,0,0,0,0,0,0,0,0,0,0,0,0,0,-0.0369,-0.037,-0.0423,-0.0424,-0.0424,-0.0443,-0.0443,-0.0443,-0.0476,-0.0477,-0.0478,-0.0479,-0.0538,-0.054,-0.0541,0,0,0,0,0,0,0,0,0,0,0,0,0,-0.039,-0.0371,-0.0423,-0.0444,-0.0446,-0.0443,-0.0443,-0.0443,-0.0476,-0.0477,-0.0478,-0.0479,-0.0538,-0.0539,-0.0541,-0.0527,0,0,-0.0545,-0.0545,0,0,0,0,0,0,0,0,-0.0389,-0.0392,-0.0441,-0.0443,-0.0445,-0.046,-0.0446,-0.0473,-0.0476,-0.0463,-0.0479,-0.048,-0.0516,-0.0519,-0.0518,-0.0529,-0.0532,-0.0545,-0.0546,-0.0546,-0.0547,0,0,0,0,0,0,0,-0.0387,-0.0391,-0.043,-0.0441,-0.0444,-0.0437,-0.0441,-0.0451,-0.0483,-0.0465,-0.0467,-0.0471,-0.0518,-0.0516,-0.052,-0.0533,-0.0545,-0.0546,-0.0547,-0.0548,-0.0618,-0.0619,0,0,0,0,0,0,-0.0389,-0.039,-0.0429,-0.043,-0.0421,-0.0437,-0.0442,-0.0453,-0.0482,-0.0488,-0.047,-0.0473,-0.0514,-0.0518,-0.0522,-0.0588,-0.0546,-0.0548,-0.0548,-0.0617,-0.0618,-0.062,0,0,0,0,0,0,-0.0388,-0.0393,-0.0428,-0.0411,-0.0415,-0.0437,-0.0449,-0.0452,-0.0468,-0.0486,-0.0493,-0.0484,-0.0515,-0.052,-0.055,-0.0587,-0.0548,-0.0549,-0.0616,-0.0618,-0.0619,-0.0667,0,0,0,0,0,0,-0.0386,-0.0392,-0.04,-0.0412,-0.0417,-0.0445,-0.0448,-0.0452,-0.0468,-0.0472,-0.0499,-0.0505,-0.0516,-0.0548,-0.0552,-0.0588,-0.0551,-0.0615,-0.0617,-0.0619,-0.0664,-0.067,-0.0675,0,0,0,0,0,-0.0384,-0.0389,-0.0401,-0.0405,-0.0428,-0.0446,-0.0448,-0.0465,-0.0468,-0.0481,-0.0499,-0.0505,-0.0564,-0.055,-0.0554,-0.0592,-0.0614,-0.0616,-0.0618,-0.0662,-0.0669,-0.0675,0,0,0,0,0,0,-0.0377,-0.0393,-0.0406,-0.0419,-0.0441,-0.0452,-0.0457,-0.0469,-0.049,-0.0493,-0.0511,-0.0518,-0.0562,-0.0563,-0.0547,-0.0618,-0.0593,-0.0596,-0.0624,-0.0631,-0.0637,-0.0645,-0.0552,0,0,0,0,0,-0.0377,-0.0385,-0.0407,-0.0422,-0.0427,-0.0443,-0.0451,-0.0466,-0.0484,-0.0494,-0.052,-0.0544,-0.057,-0.0589,-0.0609,-0.064,-0.0625,-0.0669,-0.0674,-0.0679,-0.0688,-0.0694,-0.0701,-0.0628,-0.0628,-0.0627,0,0,-0.0382,-0.039,-0.0398,-0.042,-0.043,-0.0447,-0.0451,-0.0467,-0.0497,-0.0497,-0.0545,-0.0562,-0.058,-0.0624,-0.0644,-0.0634,-0.0688,-0.0682,-0.0686,-0.0693,-0.0697,-0.0704,-0.071,-0.0629,-0.0629,-0.0629,0,0,-0.0392,-0.0399,-0.041,-0.0419,-0.0438,-0.0452,-0.046,-0.0486,-0.0514,-0.0559,-0.0567,-0.0601,-0.0648,-0.0668,-0.0683,-0.0726,-0.0715,-0.0742,-0.0783,-0.0788,-0.0794,-0.08,-0.0772,-0.0774,-0.0748,-0.0749,-0.0749,0,-0.0399,-0.0412,-0.0418,-0.0425,-0.043,-0.0456,-0.0469,-0.0502,-0.0545,-0.056,-0.0587,-0.0647,-0.0671,-0.0708,-0.0744,-0.074,-0.0732,-0.0757,-0.0795,-0.08,-0.0805,-0.0775,-0.0777,-0.0751,-0.0751,-0.0751,-0.075,0,-0.0412,-0.0423,-0.0424,-0.0445,-0.0456,-0.0467,-0.0505,-0.0533,-0.0572,-0.0605,-0.0663,-0.0703,-0.0729,-0.0761,-0.078,-0.0826,-0.0804,-0.0798,-0.0777,-0.0815,-0.0781,-0.0782,-0.0755,-0.0754,-0.0753,-0.0753,0,0,-0.0427,-0.0433,-0.0438,-0.0434,-0.0459,-0.0465,-0.051,-0.0548,-0.0554,-0.0645,-0.0663,-0.0762,-0.0775,-0.0793,-0.0815,-0.0856,-0.0889,-0.0861,-0.086,-0.0831,-0.0885,-0.0834,-0.083,-0.0897,-0.0898,-0.0899,-0.0841,0,-0.0438,-0.044,-0.0452,-0.0464,-0.0456,-0.0477,-0.0507,-0.0544,-0.0582,-0.0608,-0.0684,-0.0709,-0.0789,-0.079,-0.0855,-0.0872,-0.0899,-0.0904,-0.0855,-0.0853,-0.0802,-0.0832,-0.0902,-0.0842,-0.0842,-0.0842,-0.0843,0,-0.044,-0.0437,-0.044,-0.0434,-0.0435,-0.0454,-0.0456,-0.0493,-0.0536,-0.0562,-0.0617,-0.0647,-0.0727,-0.0774,-0.0861,-0.0864,-0.0887,-0.0914,-0.0911,-0.0851,-0.0806,-0.0801,-0.0844,-0.0844,-0.0844,-0.0844,-0.0844,0,-0.0407,-0.0423,-0.0418,-0.0416,-0.0426,-0.0432,-0.0451,-0.0475,-0.0492,-0.0516,-0.0511,-0.06,-0.0625,-0.0708,-0.0791,-0.082,-0.0862,-0.0879,-0.0848,-0.0842,-0.0882,-0.0877,-0.0922,-0.0922,-0.0922,-0.0922,-0.0922,0,-0.0386,-0.0379,-0.04,-0.0388,-0.038,-0.0399,-0.0396,-0.0412,-0.0431,-0.0433,-0.0486,-0.0491,-0.0619,-0.0659,-0.0749,-0.0802,-0.0816,-0.086,-0.0835,-0.09,-0.0898,-0.0881,-0.0877,-0.092,-0.0921,-0.0921,-0.0921,0,-0.0333,-0.0353,-0.0338,-0.0353,-0.0358,-0.035,-0.0372,-0.0358,-0.0379,-0.0371,-0.0374,-0.0416,-0.0463,-0.0556,-0.0645,-0.0712,-0.077,-0.0771,-0.0803,-0.0779,-0.0755,-0.0754,-0.0735,-0.0733,-0.0732,-0.073,-0.0729,0,-0.0299,-0.0286,-0.0301,-0.0297,-0.0305,-0.0307,-0.0299,-0.0332,-0.0324,-0.0328,-0.0318,-0.0334,-0.0371,-0.044,-0.0558,-0.0658,-0.069,-0.0694,-0.0786,-0.0764,-0.0741,-0.0743,-0.0744,-0.0726,-0.0726,-0.0725,-0.0725,0,-0.0229,-0.0244,-0.0235,-0.0229,-0.0227,-0.0225,-0.0229,-0.0221,-0.0247,-0.026,-0.0245,-0.0279,-0.0308,-0.0406,-0.0458,-0.0554,-0.0691,-0.0677,-0.0683,-0.077,-0.0752,-0.0732,-0.0735,-0.0719,-0.072,-0.072,-0.0721,0,-0.0177,-0.0161,-0.0164,-0.0154,-0.0152,-0.0146,-0.0161,-0.0158,-0.0166,-0.0186,-0.0179,-0.0222,-0.0264,-0.0348,-0.0418,-0.0482,-0.0529,-0.0571,-0.0583,-0.0591,-0.0588,-0.0547,-0.0431,0,0,0,0,0,-0.0128,-0.0109,-0.009,-0.0092,-0.0089,-0.0099,-0.0107,-0.0128,-0.0154,-0.0128,-0.0161,-0.0186,-0.0266,-0.0305,-0.036,-0.041,-0.0549,-0.0477,-0.0605,-0.0686,-0.0693,-0.0713,0,0,0,0,0,0,-0.0099,-0.0077,-0.007,-0.004,-0.0035,-0.0037,-0.0046,-0.0068,-0.0072,-0.0101,-0.0141,-0.0187,-0.0268,-0.0222,-0.0351,-0.0374,-0.0461,-0.0528,-0.0529,-0.0682,-0.0688,-0.0694,-0.0717,0,0,0,0,0]}]]